Satellite-Ground Cal/Val Region Overpasses Predictions

Prediction of Satellite NPP Overpassing Cal/Val Region: PacNW

Region Location: (Latitude: 10.00, Longitude: 139.50) to (Latitude: 22.70, Longitude: 165.60).

Table of predicted overpasses for the next 14.0 days since TLE Epoch: 8/10/2012
Interval Starting Time Starting Location Ending Time Ending Location
1 08/10/2012 14:43:57 ( 22.64, 163.46) 08/10/2012 14:47:32 ( 10.02, 160.46)
2 08/11/2012 03:34:31 ( 10.01, 145.63) 08/11/2012 03:38:07 ( 22.69, 142.62)
3 08/11/2012 14:28:02 ( 11.63, 165.59) 08/11/2012 14:28:29 ( 10.05, 165.22)
4 08/11/2012 16:06:24 ( 22.66, 142.85) 08/11/2012 16:09:59 ( 10.04, 139.85)
5 08/12/2012 03:15:29 ( 10.04, 150.38) 08/12/2012 03:19:04 ( 22.66, 147.38)
6 08/12/2012 15:47:22 ( 22.69, 147.61) 08/12/2012 15:50:58 ( 10.00, 144.60)
7 08/13/2012 02:56:27 ( 10.02, 155.14) 08/13/2012 03:00:03 ( 22.70, 152.13)
8 08/13/2012 15:28:20 ( 22.65, 152.36) 08/13/2012 15:31:55 ( 10.03, 149.36)
9 08/14/2012 02:37:25 ( 10.05, 159.89) 08/14/2012 02:41:00 ( 22.68, 156.89)
10 08/14/2012 15:09:18 ( 22.67, 157.12) 08/14/2012 15:12:53 ( 10.05, 154.12)
11 08/15/2012 02:18:23 ( 10.03, 164.65) 08/15/2012 02:21:58 ( 22.66, 161.65)
12 08/15/2012 14:50:16 ( 22.69, 161.88) 08/15/2012 14:53:52 ( 10.01, 158.87)
13 08/16/2012 03:40:50 ( 10.02, 144.04) 08/16/2012 03:44:25 ( 22.65, 141.04)
14 08/16/2012 14:32:26 ( 18.42, 165.59) 08/16/2012 14:34:49 ( 10.02, 163.63)
15 08/16/2012 16:12:43 ( 22.70, 141.27) 08/16/2012 16:14:47 ( 15.42, 139.50)
16 08/17/2012 03:21:48 ( 10.01, 148.80) 08/17/2012 03:25:24 ( 22.69, 145.78)
17 08/17/2012 15:53:42 ( 22.65, 146.01) 08/17/2012 15:57:17 ( 10.03, 143.01)
18 08/18/2012 03:02:46 ( 10.05, 153.55) 08/18/2012 03:06:21 ( 22.67, 150.55)
19 08/18/2012 15:34:39 ( 22.66, 150.77) 08/18/2012 15:38:14 ( 10.04, 147.78)
20 08/19/2012 02:43:44 ( 10.04, 158.31) 08/19/2012 02:47:19 ( 22.66, 155.31)
21 08/19/2012 15:15:37 ( 22.67, 155.54) 08/19/2012 15:19:12 ( 10.05, 152.54)
22 08/20/2012 02:24:41 ( 10.03, 163.07) 08/20/2012 02:28:16 ( 22.65, 160.07)
23 08/20/2012 14:56:34 ( 22.68, 160.30) 08/20/2012 15:00:10 ( 10.00, 157.28)
24 08/21/2012 02:08:21 ( 19.54, 165.59) 08/21/2012 02:09:14 ( 22.64, 164.83)
25 08/21/2012 03:47:09 ( 10.03, 142.45) 08/21/2012 03:50:40 ( 22.42, 139.51)
26 08/21/2012 14:37:32 ( 22.69, 165.06) 08/21/2012 14:41:08 ( 10.01, 162.04)
27 08/21/2012 16:19:02 ( 22.68, 139.68) 08/21/2012 16:19:14 ( 21.98, 139.50)
28 08/22/2012 03:28:06 ( 10.02, 147.21) 08/22/2012 03:31:41 ( 22.65, 144.21)
29 08/22/2012 15:59:59 ( 22.69, 144.44) 08/22/2012 16:03:35 ( 10.01, 141.43)
30 08/23/2012 03:09:04 ( 10.02, 151.97) 08/23/2012 03:12:39 ( 22.64, 148.97)
31 08/23/2012 15:40:57 ( 22.69, 149.20) 08/23/2012 15:44:33 ( 10.01, 146.19)


NCC Satellite Cal/Val Overpasses Prediction Service
